TimeCST,TemperatureF,Dew PointF,Humidity,Sea Level PressureIn,VisibilityMPH,Wind Direction,Wind SpeedMPH,Gust SpeedMPH,PrecipitationIn,Events,Conditions,WindDirDegrees,DateUTC
12:52 AM,35.1,27.0,72,29.90,10.0,ENE,10.4,-,N/A,,Mostly Cloudy,70,2013-02-26 06:52:00
1:52 AM,34.0,27.0,75,29.86,10.0,NE,12.7,-,N/A,,Overcast,50,2013-02-26 07:52:00
2:52 AM,34.0,27.0,75,29.81,10.0,NE,16.1,-,N/A,,Overcast,50,2013-02-26 08:52:00
3:52 AM,34.0,26.1,73,29.78,10.0,NE,20.7,26.5,N/A,,Overcast,50,2013-02-26 09:52:00
4:52 AM,34.0,26.1,73,29.75,10.0,NE,18.4,27.6,N/A,,Overcast,40,2013-02-26 10:52:00
5:52 AM,34.0,26.1,73,29.73,10.0,NE,17.3,29.9,N/A,,Overcast,40,2013-02-26 11:52:00
6:52 AM,34.0,26.1,73,29.73,10.0,NE,16.1,25.3,N/A,,Overcast,40,2013-02-26 12:52:00
7:52 AM,35.1,26.1,70,29.73,10.0,NE,15.0,26.5,N/A,,Overcast,40,2013-02-26 13:52:00
8:52 AM,34.0,26.1,73,29.70,10.0,NNE,21.9,28.8,N/A,,Overcast,30,2013-02-26 14:52:00
9:52 AM,35.1,26.1,70,29.68,10.0,NNE,23.0,32.2,N/A,,Overcast,30,2013-02-26 15:52:00
10:52 AM,35.1,26.1,70,29.68,8.0,NNE,19.6,32.2,0.00,Snow,Light Snow,30,2013-02-26 16:52:00
11:03 AM,35.6,26.6,70,29.65,3.0,NNE,18.4,32.2,0.00,Snow,Light Snow,30,2013-02-26 17:03:00
11:42 AM,35.6,26.6,70,29.64,9.0,NNE,23.0,27.6,0.00,,Overcast,20,2013-02-26 17:42:00
11:52 AM,35.1,26.1,70,29.65,8.0,NNE,20.7,33.4,0.00,Snow,Light Snow,30,2013-02-26 17:52:00
12:52 PM,35.1,26.1,70,29.64,5.0,NE,17.3,32.2,0.00,Snow,Light Snow,40,2013-02-26 18:52:00
1:00 PM,33.8,26.6,75,29.62,3.0,NE,20.7,28.8,0.00,Snow,Light Snow,40,2013-02-26 19:00:00
1:09 PM,33.8,26.6,75,29.62,2.0,NNE,20.7,29.9,0.00,Snow,Light Snow,30,2013-02-26 19:09:00
1:23 PM,33.8,26.6,75,29.60,4.0,NNE,19.6,27.6,0.00,Snow,Light Snow,20,2013-02-26 19:23:00
1:52 PM,34.0,26.1,73,29.62,3.0,NNE,24.2,38.0,0.00,Snow,Light Snow,30,2013-02-26 19:52:00
2:29 PM,33.8,26.6,75,29.61,2.0,NNE,20.7,39.1,0.00,Snow,Light Snow,30,2013-02-26 20:29:00
2:52 PM,33.1,28.0,82,29.63,1.5,NNE,16.1,26.5,0.00,Snow,Light Snow,20,2013-02-26 20:52:00
3:10 PM,33.8,28.4,81,29.62,2.5,North,17.3,25.3,0.00,Snow,Light Snow,10,2013-02-26 21:10:00
3:30 PM,32.0,28.4,87,29.63,1.2,NNE,18.4,24.2,0.00,Snow,Light Snow,20,2013-02-26 21:30:00
3:38 PM,32.0,28.4,87,29.63,1.0,North,13.8,-,0.00,Snow,Light Snow,10,2013-02-26 21:38:00
3:43 PM,32.0,28.4,87,29.64,0.8,North,15.0,24.2,0.00,Snow,Light Snow,10,2013-02-26 21:43:00
3:52 PM,32.0,28.9,88,29.66,0.8,NNE,17.3,23.0,0.00,Snow,Light Snow,20,2013-02-26 21:52:00
4:02 PM,32.0,28.4,87,29.64,0.8,North,16.1,-,0.00,Snow,Light Snow,10,2013-02-26 22:02:00
4:21 PM,32.0,28.4,87,29.65,1.0,NNE,13.8,-,0.00,Snow,Light Snow,20,2013-02-26 22:21:00
4:40 PM,32.0,28.4,87,29.66,1.5,NNE,16.1,23.0,0.01,Snow,Light Snow,20,2013-02-26 22:40:00
4:48 PM,32.0,28.4,87,29.65,2.0,North,15.0,-,0.01,Snow,Light Snow,10,2013-02-26 22:48:00
4:52 PM,32.0,28.9,88,29.67,2.5,North,12.7,21.9,0.01,Snow,Light Snow,360,2013-02-26 22:52:00
4:59 PM,32.0,28.4,87,29.65,5.0,North,16.1,25.3,0.00,Snow,Light Snow,10,2013-02-26 22:59:00
5:06 PM,32.0,28.4,87,29.66,7.0,North,13.8,20.7,0.00,,Overcast,10,2013-02-26 23:06:00
5:52 PM,32.0,28.9,88,29.69,8.0,NNE,15.0,24.2,0.00,Rain,Light Freezing Rain,20,2013-02-26 23:52:00
6:02 PM,32.0,28.4,87,29.67,4.0,NNE,16.1,24.2,0.00,Snow,Light Snow,20,2013-02-27 00:02:00
6:07 PM,32.0,28.4,87,29.67,1.8,North,17.3,24.2,0.00,Snow,Light Snow,10,2013-02-27 00:07:00
6:21 PM,32.0,28.4,87,29.68,2.0,North,13.8,23.0,0.00,Snow,Light Snow,10,2013-02-27 00:21:00
6:31 PM,32.0,28.4,87,29.68,5.0,North,12.7,21.9,0.00,Snow,Light Snow,10,2013-02-27 00:31:00
6:44 PM,32.0,28.4,87,29.69,3.0,North,10.4,-,0.00,Snow,Light Snow,10,2013-02-27 00:44:00
6:52 PM,32.0,28.9,88,29.71,4.0,North,13.8,19.6,0.00,Snow,Light Snow,360,2013-02-27 00:52:00
7:09 PM,32.0,28.4,87,29.69,4.0,North,12.7,-,0.00,Snow,Light Snow,360,2013-02-27 01:09:00
7:52 PM,32.0,28.9,88,29.71,4.0,North,10.4,19.6,0.01,Snow,Light Snow,360,2013-02-27 01:52:00
8:01 PM,32.0,28.4,87,29.69,3.0,North,13.8,-,0.00,Snow,Light Snow,360,2013-02-27 02:01:00
8:15 PM,32.0,28.4,87,29.70,2.0,North,17.3,23.0,0.00,Snow,Light Snow,360,2013-02-27 02:15:00
8:23 PM,32.0,28.4,87,29.70,1.5,North,18.4,-,0.00,Snow,Light Snow,360,2013-02-27 02:23:00
8:40 PM,32.0,28.4,87,29.70,1.8,North,12.7,19.6,0.00,Snow,Light Snow,360,2013-02-27 02:40:00
8:52 PM,32.0,28.9,88,29.72,1.5,North,12.7,-,0.00,Snow,Light Snow,350,2013-02-27 02:52:00
9:09 PM,32.0,28.4,87,29.70,1.8,North,11.5,-,0.00,Snow,Light Snow,350,2013-02-27 03:09:00
9:16 PM,32.0,28.4,87,29.70,2.0,North,12.7,-,0.01,Snow,Light Snow,350,2013-02-27 03:16:00
9:52 PM,32.0,28.9,88,29.72,3.0,North,13.8,23.0,0.01,Snow,Light Snow,360,2013-02-27 03:52:00
11:15 PM,30.2,28.4,93,29.70,9.0,North,17.3,21.9,0.00,Snow,Light Snow,350,2013-02-27 05:15:00
11:52 PM,30.9,28.0,89,29.73,7.0,North,11.5,-,0.00,Snow,Light Snow,350,2013-02-27 05:52:00